GPS BIII-1 (PRN 04)

Last updated on Sat Oct 25 2025 00:03:19 GMT+0000 (Coordinated Universal Time)

1 43873U 18109A 25297.42456737 .00000026 00000+0 00000+0 0 9993 2 43873 55.5377 101.4939 0036415 193.4797 343.7803 2.00552473 50343
UTC large
Height (km)
Speed (km/s)
/
Latitude / Longitude
Inclination (degrees)
Orbital Period (minutes)
Azimuth
Elevation
Range (km)
Doppler Factor

Next 0 passes for location: London (51.5072 / 0.1276)

Sorry there are no passes over London.